Location: Favalello
(42.2939°N, 9.2706°E)
Time: 03:14:20
(UTC+00:00)

Cosmos 332 Rocket - Pass Details

Date: 06 December 2019
Orbit: 683 x 703 km, 74.0° (Epoch: 26 January)

Event Time Altitude Azimuth Distance (km) Brightness Sun altitude
Rises 16:38:50 0° 337° (NNW) 3,084 7.2 -8.8°
Reaches altitude 10° 16:41:10 10° 335° (NNW) 2,160 6.4 -9.2°
Maximum altitude 16:46:00 67° 253° (WSW) 749 4.2 -10.1°
Drops below altitude 10° 16:50:45 10° 172° (S) 2,131 6.5 -10.9°
Sets 16:53:03 0° 169° (S) 3,040 7.2 -11.3°
